Flag for Germany Weather past 2 weeks in Neuwied, Rhineland-Palatinate, Germany

Now
32 °F

Chilly.


Feels Like: 25 °F
Forecast: 37 / 45 °F
Wind: 8 mph from West

Location: Buechel

Current Time: Mar 4, 2015 at 4:38:21 AM

Latest Report: Mar 4, 2015 at 3:20 AM


Visibility: N/A

Pressure: 30.12 "Hg

Humidity: 100%

Dew point: 32 °F

Location of NeuwiedLocation

Historic Weather in Neuwied — Graph

°F

Neuwied temperature yesterday

Maximum temperature yesterday: 45 °F (at 3:20 PM)
Minimum temperature yesterday: 30 °F (at 2:20 AM)
Average temperature yesterday: 35 °F

Past Weeks' High & Low Weather Summary

 TemperatureHumidityPressure
High46 °F (Mar 1, 1:20 PM)100% (Feb 17, 9:20 AM)30.69 "Hg (Feb 17, 9:20 AM)
Low27 °F (Feb 19, 1:20 AM)46% (Mar 2, 2:20 PM)29.39 "Hg (Feb 21, 4:20 AM)
Average35 °F89%29.95 "Hg
* Reported Feb 17 3:20 AM — Mar 4 3:20 AM, Neuwied, Weather by CustomWeather, © 2015

Note: Actual official high and low records may vary slightly from our data, if they occured in-between our weather recording intervals... More about our weather records

Advertising

Neuwied weather history for previous 24 hours

 ConditionsComfort  
Time TempWeatherWind HumidityBarometerVisibility
3:20 AM
Wed, Mar 4
32 °FChilly.8 mph100%30.12 "HgN/A
2:20 AM34 °FChilly.6 mph93%30.12 "HgN/A
1:20 AM34 °FChilly.6 mph93%30.12 "HgN/A
12:20 AM34 °FChilly.8 mph93%30.09 "HgN/A
11:20 PM
Tue, Mar 3
34 °FChilly.9 mph100%30.07 "HgN/A
10:20 PM34 °FChilly.9 mph100%30.07 "HgN/A
9:20 PM36 °FChilly.9 mph93%30.04 "HgN/A
8:20 PM36 °FChilly.8 mph93%30.01 "HgN/A
7:20 PM36 °FChilly.8 mph100%30.01 "HgN/A
6:20 PM39 °FChilly.15 mph87%30.01 "Hg3 mi
5:20 PM43 °FPartly sunny.15 mph57%29.98 "HgN/A
4:20 PM43 °FLight rain. Broken clouds.15 mph57%30.01 "HgN/A
3:20 PM45 °FBroken clouds.20 mph53%30.01 "HgN/A
2:20 PM43 °FScattered clouds.20 mph61%30.01 "HgN/A
1:20 PM43 °FScattered clouds.18 mph61%30.04 "HgN/A
12:20 PM41 °FScattered clouds.15 mph61%30.07 "HgN/A
11:20 AM37 °FScattered clouds.15 mph70%30.07 "HgN/A
10:20 AM36 °FPassing clouds.13 mph81%30.09 "HgN/A
9:20 AM32 °FScattered clouds.10 mph87%30.09 "HgN/A
8:20 AM30 °FPassing clouds.12 mph93%30.09 "HgN/A
7:20 AM30 °FScattered clouds.10 mph93%30.07 "HgN/A
6:51 AM30 °FPartly cloudy.10 mph93%30.07 "HgN/A
6:20 AM32 °FPassing clouds.10 mph87%30.07 "HgN/A
5:20 AM32 °FPartly cloudy.10 mph87%30.07 "HgN/A
4:52 AM30 °FPassing clouds.12 mph86%30.07 "HgN/A
4:20 AM30 °FPartly cloudy.10 mph86%30.07 "HgN/A
Weather by CustomWeather, © 2015

See weather overviewHow to use our weather pages